Terminal Aerodrome Forecast
Issued by NWS Flagstaff, AZ

Home | Current Version | Previous Version | Text Only | Print | Product List | Glossary On
Versions: 1 2 3 4 5 6 7 8 9 10 11 12 13 14 15 16 17 18 19 20
000
FTUS45 KFGZ 302300
TAFFLG
TAF
KFLG 302339Z 3100/3124 18006KT 6SM -RA SCT005 BKN010 OVC025
      TEMPO 3100/3103 3SM -RA BR BKN005 OVC015
     FM310300 VRB03KT 5SM -SHRA BKN005 OVC015=

USA.gov is the U.S. government's official web portal to all federal, state and local government web resources and services.